Location: ??
(35.1715°N, 139.6450°E)
Time: 20:57:53
(UTC+00:00)

Cosmos 1570 Rocket - Pass Details

Date: 05 August 2024
Orbit: 762 x 784 km, 74.1° (Epoch: 18 September)

Event Time Altitude Azimuth Distance (km) Brightness Sun altitude
Exits shadow 17:54:21 49° 216° (SW) 1,005 4.1 -21.8°
Maximum altitude 17:55:47 75° 288° (WNW) 813 4.0 -21.6°
Drops below altitude 10° 18:01:07 10° 14° (NNE) 2,346 7.3 -20.7°
Sets 18:03:31 0° 16° (NNE) 3,277 8.2 -20.4°
